Location: ?ern� Novina
(50.6762°N, 14.8696°E)
Time: 14:06:01
(UTC+00:00)

Nadezhda 3 Rocket - Pass Details

Date: 03 March 2021
Orbit: 957 x 999 km, 82.9° (Epoch: 10 April)

Event Time Altitude Azimuth Distance (km) Brightness Sun altitude
Rises 17:25:54 0° 351° (N) 3,724 7.1 -7.2°
Reaches altitude 10° 17:28:28 10° 354° (N) 2,775 6.5 -7.6°
Maximum altitude 17:34:49 68° 77° (ENE) 1,076 4.0 -8.6°
Drops below altitude 10° 17:41:09 10° 161° (SSE) 2,763 6.2 -9.6°
Sets 17:43:41 0° 163° (SSE) 3,707 6.8 -10.0°
